SL-14 DEB

Satellite information

Favourite Embed

Satellite Type and Status

DEBRISIN ORBIT

Key statistics

Satellite SL-14 DEB at a glance.

Uptime

14081

Days in orbit

Revolutions

≈ 14.1

Per day

Orbit

LEO

Low Earth Orbit

Inclination

82.5

Latest

Satellite identification and parameters

Extended collection of information and parameters for SL-14 DEB.

Object identification

Identified? True

Debris? True

Object name: SL-14 DEB

International designator: 1986-101K

Object number (NORAD): 17844

Object ID (CCSDS): 17844

Country: COMMONWEALTH OF INDEPENDENT STATES (CIS)

Current information (Y/N): Y

RCS size: SMALL

Orbital parameters

Period: 102.11 minutes

Inclination: 82.5074 deg

SMA: 7236.66 km

Apoapsis: 871.322 km

Periapsis: 845.727 km

RAAN: 216.4363 deg

Eccentricy: 0.0017684

Argument of periapsis: 181.885 deg

Mean anomaly: 240.332 deg

Mean motion: 14.10248189 rev/day

Mean motion (dot): 0.0000071 rev/day2

B* drag term: 0.00039162 1/REarth

Two-line elements (TLE)

Creation date: July 6, 2025, 6:05 p.m.

Reference frame: TEME

Reference center: EARTH

Epoch: July 6, 2025, 9:16 a.m. UTC

TLE line 0: 0 SL-14 DEB

TLE line 1: 1 17844U 86101K 25187.38670347 .00000710 00000-0 39162-3 0 9993

TLE line 2: 2 17844 82.5074 216.4363 0017684 181.8850 240.3320 14.10248189969415

Live tracking on map

Real-time ground track for satellite SL-14 DEB.

In-orbit conjunctions

A list of the most updated potential collisions computed for object SL-14 DEB.

Target Orbit TCA Probability of collision Miss distance Type
DMSP 5D-2 F13 DEB SSO 2025-05-29 18:06:24 0.001926467 39.0 (m) DEBRIS
COSMOS 1275 DEB LEO 2024-10-18 06:33:22 0.0002863529 54.0 (m) DEBRIS
FENGYUN 1C DEB SSO 2024-09-29 19:41:54 0.0001048091 42.0 (m) DEBRIS

Associated space launch

Ionospheric research satellite

SL-14 DEB was lifted into orbit during the mission ‘Tsiklon-3 | Ionozond-E’, on board a Tsiklon-3 space rocket.

The launch took place on Dec. 18, 1986, 8 a.m. from 32/2.

For more information about the launch, click the button.

Launch to space Tsiklon-3 | Ionozond-E
Tsiklon-3 | Ionozond-E

Agency: N/A

Status: Launch Successful

Launch date: Dec. 18, 1986, 8 a.m. UTC

Rocket: Tsiklon-3

Launch pad: 32/2

Location: Plesetsk Cosmodrome, Russian Federation

...

Latest news about this satellite

There are no fresh news available about this satellite. Check back as we update our databases every day.


Newsletter sign-up

Weekly statistics, charts and insights to help you stay on top of the space industry.